Miscellaneous Local Product
Issued by NWS Hastings, NE

Home | Current Version | Previous Version | Text Only | Print | Product List | Glossary Off
Versions: 1 2 3 4 5 6 7 8 9 10 11 12 13 14 15 16 17 18 19 20 21 22 23 24 25 26 27 28 29 30 31 32 33 34 35 36 37 38 39 40 41 42 43 44 45 46 47 48 49 50

000
AXUS43 KGID 250402
MISGRI

GID CWA HOURLY WEATHER ROUNDUP
NATIONAL WEATHER SERVICE HASTINGS NE
1100 PM CDT MON JUL 24 2017

NOTE: "FAIR" INDICATES FEW OR NO CLOUDS BELOW 12,000 FEET WITH NO
SIGNIFICANT WEATHER AND/OR OBSTRUCTIONS TO VISIBILITY.

...SOUTH CENTRAL NEBRASKA...

CITY           SKY/WX    TMP DP  RH WIND       PRES   REMARKS
GRAND ISLAND   CLEAR     79  71  76 SE14      29.97R
HASTINGS       CLEAR     80  70  71 S12       29.98R
KEARNEY        CLEAR     78  70  76 SE15      29.97R
ORD            CLEAR     81  68  64 SE15G22   29.93R
YORK           PTCLDY    77  70  78 SE12      29.98R
AURORA         CLEAR     73  70  90 SE7       29.97R
LEXINGTON      MOCLDY    77  62  60 SE10      29.96R
HOLDREGE       PTCLDY    72  64  74 SE7       29.98R
HEBRON         CLEAR     80  73  77 SE7       29.98R

...NEBRASKA PANHANDLE...

CITY           SKY/WX    TMP DP  RH WIND       PRES   REMARKS
CHADRON        CLEAR     82  53  36 CALM      29.87R
ALLIANCE       CLEAR     81  51  35 S17G29    29.92R
SCOTTSBLUFF    CLOUDY    76  55  48 E8        29.93R
SIDNEY         CLOUDY    76  55  48 S20G26    30.01R

...WESTERN AND NORTH CENTRAL NEBRASKA...

CITY           SKY/WX    TMP DP  RH WIND       PRES   REMARKS
VALENTINE      CLEAR     79  62  56 SE16      29.89R
AINSWORTH      PTCLDY    79  66  65 SE16      29.93R
ONEILL         LGT RAIN  73  67  80 NE15G23   30.02R
BROKEN BOW     CLEAR     80  70  71 SE12      29.95R
IMPERIAL       CLOUDY    86  58  38 S13G22    29.99S
NORTH PLATTE   CLOUDY    87  54  32 SE12G20   29.91R
MCCOOK         CLOUDY    84  55  36 S13       29.96R

...EASTERN NEBRASKA...

CITY           SKY/WX    TMP DP  RH WIND       PRES   REMARKS
NORFOLK        MOCLDY    76  66  71 SE14      29.95R
SO SIOUX CITY  PTCLDY    75  66  73 SE9       29.95S
TEKAMAH        CLEAR     74  66  76 SE10      29.97S
COLUMBUS       CLOUDY    77  68  73 SE9       29.97R
ALBION         MOCLDY    78  70  77 SE6       29.97R
OMAHA EPPLEY   CLEAR     78  66  66 SE12      29.99R
OFFUTT AFB     CLEAR     73  66  78 E8        29.99R
MILLARD        CLEAR     77  69  76 SE9       29.98F
LINCOLN        CLEAR     80  66  62 SE17G23   29.98R
NEBRASKA CITY  CLEAR     74  69  84 SE8       30.01R
BEATRICE       CLEAR     79  69  71 SE7       29.99R
FALLS CITY     CLEAR     72  68  87 SE3       30.00R

...NORTHERN KANSAS...

CITY           SKY/WX    TMP DP  RH WIND       PRES   REMARKS
GOODLAND       CLEAR     78  58  49 SE14      30.03R
HILL CITY      PTCLDY    82  54  37 S9        29.98R
NORTON         CLEAR     79  48  34 S8        29.98
PHILLIPSBURG   CLEAR     82  52  34 S6        29.97R
SMITH CENTER     N/A     81  64  57 SE10      29.98R
HAYS             N/A     82  55  39 S13       29.98R
RUSSELL        CLEAR     81  63  54 SE9       29.97R
CONCORDIA      CLEAR     78  74  87 SE8       29.98R
SALINA         CLEAR     85  68  56 SE10      29.97R
TOPEKA         CLEAR     78  72  81 E5        29.99R



USA.gov is the U.S. government's official web portal to all federal, state and local government web resources and services.